Location: Cieszkowy
(50.3290°N, 20.5336°E)
Time: 00:20:10
(UTC+00:00)

Cosmos 1844 Rocket - Pass Details

Date: 15 June 2024
Orbit: 825 x 843 km, 71.0° (Epoch: 18 July)

Event Time Altitude Azimuth Distance (km) Brightness Sun altitude
Exits shadow 01:17:33 - 195° (SSW) 2,587 4.7 -8.4°
Reaches altitude 10° 01:17:59 10° 194° (SSW) 2,427 4.5 -8.3°
Maximum altitude 01:23:28 64° 114° (ESE) 913 3.0 -7.8°
Drops below altitude 10° 01:28:59 10° 34° (NE) 2,437 6.9 -7.3°
Sets 01:31:26 0° 32° (NNE) 3,374 8.2 -7.0°
